Regional Weather Roundup
Issued by NWS Cleveland, OH

Home | Current Version | Previous Version | Graphics & Text | Print | Product List | Glossary On
Versions: 1 2 3 4 5 6 7 8 9 10 11 12 13 14 15 16 17 18 19 20 21 22 23 24 25 26 27 28 29 30 31 32 33 34 35 36 37 38 39 40 41 42 43 44 45 46 47 48 49 50
000
ASUS41 KCLE 212110
RWRCLE
OHIO REGIONAL WEATHER ROUNDUP
NATIONAL WEATHER SERVICE CLEVELAND, OH
400 PM EST SUN DEC 21 2014

NOTE: "FAIR" INDICATES FEW OR NO CLOUDS BELOW 12,000 FEET WITH NO
SIGNIFICANT WEATHER AND/OR OBSTRUCTIONS TO VISIBILITY.

OHZ001>008-015>018-024>027-034-035-043-044-212200-
   NORTHWEST OHIO

CITY           SKY/WX    TMP DP  RH WIND       PRES   REMARKS
DEFIANCE       CLOUDY    35  25  66 S5        30.22S
FINDLAY        PTCLDY    35  25  66 SE6       30.20F
TOLEDO EXPRESS CLOUDY    33  25  72 S3        30.22S
TOLEDO EXEC    MOCLDY    35  25  66 CALM      30.23F
LIMA           MOSUNNY   38  24  57 SE6       30.19S
$$

OHZ009>014-019>023-028>033-038-089-212200-
   NORTHEAST OHIO

CITY           SKY/WX    TMP DP  RH WIND       PRES   REMARKS
CLE-HOPKINS    CLOUDY    30  22  72 S3        30.27S
CLE-LAKEFRONT  CLOUDY    33  21  61 S6        30.25S WCI  28
CUY CO. ARPT   CLOUDY    32  23  69 S9        30.25F WCI  24
LORAIN-ELYRIA  PTCLDY    31  22  69 SE9       30.24S WCI  23
ASHTABULA      CLOUDY    31  22  69 S5        30.26S WCI  26
AKRON-CANTON   CLOUDY    31  21  66 SE7       30.23R WCI  24
WOOSTER        CLOUDY    30  22  72 S5        30.24R HAZE    WCI  25
MANSFIELD      CLEAR     34  22  61 SE6       30.20S WCI  29
YOUNGSTOWN     CLOUDY    30  21  69 SE7       30.23F WCI  23
$$

OHZ042-051>053-060>062-070>072-077>081-212200-
  SOUTHWEST OHIO

CITY           SKY/WX    TMP DP  RH WIND       PRES   REMARKS
CINC-COVINGTON PTSUNNY   37  25  61 E7        30.17F
CINC-LUNKEN    PTSUNNY   36  27  69 CALM      30.21F
HAMILTON       PTSUNNY   38  26  62 E3        30.20F
DAYTON         CLOUDY    36  25  64 SE9       30.19F
WRIGHT-PAT AFB PTSUNNY   37  26  64 SE5       30.19F
DAYTON GENERAL MOSUNNY   36  26  67 E7        30.17F
WILMINGTON     MOSUNNY   34  25  69 SE5       30.18F WCI  30
$$

OHZ036-037-039>041-045>050-054>059-063>069-073>076-082>088-212200-
  CENTRAL AND SOUTHEAST OHIO

CITY           SKY/WX    TMP DP  RH WIND       PRES   REMARKS
COLUMBUS       MOCLDY    35  22  58 E7        30.21S WCI  29
OSU AIRPORT    PTCLDY    36  22  56 SE7       30.20S
BOLTON FIELD   PTSUNNY   36  25  64 SE5       30.21S
RICKENBACK AFB MOSUNNY   35  24  64 E5        30.21F
NEWARK         PTCLDY    36  23  59 SE5       30.21S
MARION         PTCLDY    35  22  58 S8        30.21S WCI  29
LANCASTER      PTCLDY    51  25  36 SE6       30.22R
ZANESVILLE     CLOUDY    33  23  66 CALM      30.23S
NEW PHILLY     CLOUDY    33  22  63 CALM      30.25R
$$



USA.gov is the U.S. government's official web portal to all federal, state and local government web resources and services.